| time (UTC) | temp F | wind direction | speed MPH | gust MPH | rain 1hr in | rain 24hr in | rain mn in | humidity % | barometer mb |
| 20260505230501 | 76 | 50 | 7.0 | 17.0 | 0.00 | 0.04 | 0.04 | 43 | 1007.8 |
| 20260505230004 | 77 | 177 | 8.0 | 16.0 | 0.00 | 0.04 | 0.04 | 42 | 1007.7 |
| 20260505225501 | 77 | 205 | 9.0 | 16.0 | 0.00 | 0.04 | 0.04 | 41 | 1007.7 |
| 20260505225001 | 77 | 202 | 9.0 | 20.0 | 0.00 | 0.04 | 0.04 | 41 | 1007.7 |
| 20260505224502 | 77 | 157 | 11.0 | 21.0 | 0.00 | 0.04 | 0.04 | 41 | 1007.7 |
| 20260505224001 | 78 | 191 | 11.0 | 21.0 | 0.00 | 0.04 | 0.04 | 41 | 1007.7 |
| 20260505223501 | 78 | 184 | 12.0 | 21.0 | 0.00 | 0.04 | 0.04 | 41 | 1007.6 |
| 20260505223002 | 78 | 198 | 12.0 | 21.0 | 0.00 | 0.04 | 0.04 | 40 | 1007.5 |
| 20260505222001 | 79 | 209 | 10.0 | 21.0 | 0.00 | 0.04 | 0.04 | 41 | 1007.7 |
| 20260505221502 | 79 | 167 | 10.0 | 21.0 | 0.00 | 0.04 | 0.04 | 40 | 1007.6 |
| 20260505220006 | 79 | 192 | 10.0 | 23.0 | 0.00 | 0.04 | 0.04 | 40 | 1007.4 |
| 20260505215501 | 79 | 192 | 12.0 | 23.0 | 0.00 | 0.04 | 0.04 | 40 | 1007.4 |
| 20260505215001 | 79 | 218 | 12.0 | 23.0 | 0.00 | 0.04 | 0.04 | 40 | 1007.4 |
| 20260505214502 | 79 | 173 | 12.0 | 23.0 | 0.00 | 0.04 | 0.04 | 40 | 1007.3 |
| 20260505214001 | 79 | 257 | 12.0 | 22.0 | 0.00 | 0.04 | 0.04 | 40 | 1007.4 |
| 20260505212501 | 79 | 245 | 11.0 | 21.0 | 0.00 | 0.04 | 0.04 | 41 | 1007.5 |
| 20260505212001 | 79 | 191 | 11.0 | 17.0 | 0.00 | 0.04 | 0.04 | 40 | 1007.5 |
| 20260505211502 | 79 | 240 | 12.0 | 25.0 | 0.00 | 0.04 | 0.04 | 40 | 1007.4 |
| 20260505211001 | 79 | 210 | 12.0 | 25.0 | 0.00 | 0.04 | 0.04 | 39 | 1007.6 |
| 20260505210501 | 79 | 175 | 12.0 | 26.0 | 0.00 | 0.04 | 0.04 | 40 | 1007.4 |
| 20260505210006 | 79 | 228 | 14.0 | 26.0 | 0.00 | 0.04 | 0.04 | 40 | 1007.4 |
| 20260505205501 | 79 | 181 | 13.0 | 29.0 | 0.00 | 0.04 | 0.04 | 38 | 1007.4 |
| 20260505205001 | 79 | 231 | 13.0 | 21.0 | 0.00 | 0.04 | 0.04 | 39 | 1007.4 |
| 20260505204502 | 79 | 234 | 13.0 | 24.0 | 0.00 | 0.04 | 0.04 | 38 | 1007.4 |
| 20260505203501 | 79 | 172 | 12.0 | 22.0 | 0.00 | 0.04 | 0.04 | 40 | 1007.4 |
| 20260505203002 | 79 | 223 | 12.0 | 22.0 | 0.00 | 0.04 | 0.04 | 41 | 1007.3 |
| 20260505202501 | 79 | 196 | 12.0 | 24.0 | 0.00 | 0.04 | 0.04 | 41 | 1007.5 |
| 20260505202001 | 80 | 221 | 11.0 | 24.0 | 0.00 | 0.04 | 0.04 | 40 | 1007.6 |
| 20260505201001 | 80 | 224 | 10.0 | 25.0 | 0.00 | 0.04 | 0.04 | 45 | 1007.4 |
| 20260505200501 | 80 | 213 | 10.0 | 25.0 | 0.00 | 0.04 | 0.04 | 40 | 1007.3 |
| 20260505195501 | 80 | 224 | 13.0 | 27.0 | 0.00 | 0.04 | 0.04 | 42 | 1007.6 |
| 20260505195001 | 80 | 266 | 12.0 | 24.0 | 0.00 | 0.04 | 0.04 | 46 | 1007.6 |
| 20260505194504 | 80 | 217 | 12.0 | 24.0 | 0.00 | 0.04 | 0.04 | 43 | 1007.6 |
| 20260505194001 | 79 | 159 | 11.0 | 23.0 | 0.00 | 0.04 | 0.04 | 45 | 1007.6 |
| 20260505193502 | 79 | 164 | 9.0 | 19.0 | 0.00 | 0.04 | 0.04 | 45 | 1007.6 |
| 20260505193002 | 79 | 193 | 9.0 | 20.0 | 0.00 | 0.04 | 0.04 | 45 | 1007.8 |
| 20260505192001 | 80 | 224 | 12.0 | 23.0 | 0.00 | 0.04 | 0.04 | 42 | 1007.8 |
| 20260505191502 | 80 | 236 | 14.0 | 26.0 | 0.00 | 0.04 | 0.04 | 39 | 1007.8 |
| 20260505191001 | 80 | 228 | 14.0 | 26.0 | 0.00 | 0.04 | 0.04 | 39 | 1007.8 |
| 20260505190501 | 81 | 228 | 12.0 | 21.0 | 0.00 | 0.04 | 0.04 | 38 | 1007.9 |
| 20260505190004 | 81 | 209 | 13.0 | 23.0 | 0.00 | 0.04 | 0.04 | 38 | 1007.9 |
| 20260505185501 | 80 | 221 | 12.0 | 23.0 | 0.00 | 0.04 | 0.04 | 39 | 1008.0 |
| 20260505185001 | 80 | 178 | 12.0 | 21.0 | 0.00 | 0.04 | 0.04 | 37 | 1008.1 |
| 20260505184502 | 80 | 213 | 14.0 | 21.0 | 0.00 | 0.04 | 0.04 | 39 | 1008.2 |
| 20260505184001 | 79 | 221 | 18.0 | 30.0 | 0.00 | 0.04 | 0.04 | 38 | 1008.2 |
| 20260505183501 | 79 | 263 | 18.0 | 30.0 | 0.00 | 0.04 | 0.04 | 37 | 1008.3 |
| 20260505183002 | 80 | 252 | 15.0 | 30.0 | 0.00 | 0.04 | 0.04 | 35 | 1008.3 |
| 20260505182501 | 80 | 236 | 14.0 | 30.0 | 0.00 | 0.04 | 0.04 | 39 | 1008.5 |
| 20260505182001 | 80 | 223 | 14.0 | 32.0 | 0.00 | 0.04 | 0.04 | 36 | 1008.5 |
| 20260505181502 | 80 | 227 | 14.0 | 26.0 | 0.00 | 0.04 | 0.04 | 38 | 1008.5 |
| 20260505180501 | 79 | 211 | 15.0 | 27.0 | 0.00 | 0.04 | 0.04 | 41 | 1008.6 |
| 20260505180002 | 80 | 250 | 11.0 | 27.0 | 0.00 | 0.04 | 0.04 | 38 | 1008.5 |
| 20260505175501 | 80 | 244 | 12.0 | 26.0 | 0.00 | 0.04 | 0.04 | 40 | 1008.6 |
| 20260505174502 | 80 | 195 | 12.0 | 23.0 | 0.00 | 0.04 | 0.04 | 42 | 1008.9 |
| 20260505174001 | 79 | 227 | 13.0 | 21.0 | 0.00 | 0.04 | 0.04 | 43 | 1008.9 |
| 20260505173501 | 79 | 228 | 13.0 | 23.0 | 0.00 | 0.04 | 0.04 | 42 | 1008.9 |
| 20260505173002 | 79 | 194 | 14.0 | 26.0 | 0.00 | 0.04 | 0.04 | 42 | 1009.0 |
| 20260505172501 | 79 | 221 | 16.0 | 33.0 | 0.00 | 0.04 | 0.04 | 40 | 1009.0 |
| 20260505171502 | 79 | 216 | 13.0 | 33.0 | 0.00 | 0.04 | 0.04 | 41 | 1009.1 |
| 20260505171001 | 78 | 236 | 11.0 | 18.0 | 0.00 | 0.04 | 0.04 | 47 | 1009.0 |
| 20260505170501 | 78 | 246 | 11.0 | 21.0 | 0.00 | 0.04 | 0.04 | 44 | 1009.1 |
| 20260505170006 | 77 | 233 | 11.0 | 19.0 | 0.00 | 0.04 | 0.04 | 47 | 1009.1 |
| 20260505165501 | 77 | 259 | 10.0 | 18.0 | 0.00 | 0.04 | 0.04 | 47 | 1009.2 |
| 20260505165001 | 78 | 234 | 11.0 | 20.0 | 0.00 | 0.04 | 0.04 | 49 | 1009.4 |
| 20260505164502 | 78 | 260 | 10.0 | 20.0 | 0.00 | 0.04 | 0.04 | 48 | 1009.4 |
| 20260505164001 | 78 | 250 | 9.0 | 19.0 | 0.00 | 0.04 | 0.04 | 47 | 1009.5 |
| 20260505163501 | 77 | 223 | 9.0 | 18.0 | 0.00 | 0.04 | 0.04 | 52 | 1009.6 |
| 20260505163002 | 77 | 214 | 10.0 | 18.0 | 0.00 | 0.04 | 0.04 | 50 | 1009.6 |
| 20260505162501 | 76 | 217 | 10.0 | 19.0 | 0.00 | 0.04 | 0.04 | 52 | 1009.7 |
| 20260505162001 | 76 | 257 | 11.0 | 19.0 | 0.00 | 0.04 | 0.04 | 51 | 1009.8 |
| 20260505161001 | 76 | 279 | 10.0 | 20.0 | 0.00 | 0.04 | 0.04 | 51 | 1009.7 |
| 20260505160501 | 75 | 232 | 12.0 | 19.0 | 0.00 | 0.04 | 0.04 | 54 | 1009.8 |
| 20260505153003 | 74 | 218 | 8.0 | 16.0 | 0.00 | 0.04 | 0.04 | 55 | 1010.2 |
| 20260505152501 | 74 | 217 | 8.0 | 15.0 | 0.00 | 0.04 | 0.04 | 59 | 1010.1 |
| 20260505152001 | 74 | 256 | 7.0 | 16.0 | 0.00 | 0.04 | 0.04 | 57 | 1010.2 |
| 20260505151502 | 73 | 255 | 8.0 | 16.0 | 0.00 | 0.04 | 0.04 | 57 | 1010.2 |
| 20260505151001 | 73 | 250 | 8.0 | 14.0 | 0.00 | 0.04 | 0.04 | 57 | 1010.3 |
| 20260505150501 | 72 | 257 | 8.0 | 16.0 | 0.00 | 0.04 | 0.04 | 57 | 1010.4 |
| 20260505125001 | 63 | 50 | 5.0 | 12.0 | 0.00 | 0.04 | 0.04 | 74 | 1011.1 |
| 20260505124502 | 62 | 50 | 5.0 | 11.0 | 0.00 | 0.04 | 0.04 | 75 | 1011.0 |
| 20260505124001 | 62 | 50 | 6.0 | 10.0 | 0.00 | 0.04 | 0.04 | 75 | 1011.0 |
| 20260505123501 | 61 | 50 | 4.0 | 10.0 | 0.00 | 0.04 | 0.04 | 77 | 1010.9 |
| 20260505123002 | 60 | 222 | 1.0 | 8.0 | 0.00 | 0.04 | 0.04 | 81 | 1010.9 |
| 20260505122501 | 60 | 131 | 1.0 | 4.0 | 0.00 | 0.04 | 0.04 | 86 | 1010.8 |
| 20260505122001 | 59 | 130 | 0.0 | 4.0 | 0.00 | 0.04 | 0.04 | 87 | 1010.9 |
| 20260505121502 | 58 | 50 | 0.0 | 2.0 | 0.00 | 0.04 | 0.04 | 88 | 1010.8 |
| 20260505121001 | 58 | 50 | 0.0 | 2.0 | 0.00 | 0.04 | 0.04 | 90 | 1010.7 |
| 20260505120501 | 57 | 50 | 0.0 | 2.0 | 0.00 | 0.04 | 0.04 | 91 | 1010.8 |
| 20260505115001 | 55 | 50 | 1.0 | 3.0 | 0.00 | 0.04 | 0.04 | 93 | 1010.9 |
| 20260505114502 | 55 | 50 | 0.0 | 3.0 | 0.00 | 0.04 | 0.04 | 95 | 1010.9 |
| 20260505113501 | 54 | 50 | 0.0 | 0.0 | 0.00 | 0.04 | 0.04 | 95 | 1010.7 |
| 20260505113002 | 53 | 50 | 0.0 | 0.0 | 0.00 | 0.04 | 0.04 | 96 | 1010.6 |
| 20260505112501 | 52 | 50 | 0.0 | 0.0 | 0.00 | 0.04 | 0.04 | 96 | 1010.6 |
| 20260505112001 | 52 | 50 | 0.0 | 0.0 | 0.00 | 0.04 | 0.04 | 95 | 1010.7 |
| 20260505111502 | 51 | 50 | 0.0 | 0.0 | 0.00 | 0.04 | 0.04 | 95 | 1010.5 |
| 20260505111001 | 51 | 50 | 0.0 | 0.0 | 0.00 | 0.04 | 0.04 | 95 | 1010.5 |
| 20260505110501 | 51 | 50 | 0.0 | 0.0 | 0.00 | 0.04 | 0.04 | 95 | 1010.4 |
| 20260505102001 | 49 | 273 | 0.0 | 1.0 | 0.00 | 0.04 | 0.04 | 92 | 1010.3 |
| 20260505101502 | 49 | 273 | 0.0 | 0.0 | 0.00 | 0.04 | 0.04 | 92 | 1010.3 |
| 20260505101001 | 49 | 273 | 0.0 | 0.0 | 0.00 | 0.04 | 0.04 | 92 | 1010.3 |
| 20260505100501 | 50 | 273 | 0.0 | 0.0 | 0.00 | 0.04 | 0.04 | 92 | 1010.2 |
| 20260505095501 | 50 | 273 | 1.0 | 2.0 | 0.00 | 0.04 | 0.04 | 92 | 1010.1 |
| 20260505095001 | 50 | 273 | 1.0 | 2.0 | 0.00 | 0.04 | 0.04 | 92 | 1010.2 |
| 20260505094001 | 51 | 288 | 0.0 | 1.0 | 0.00 | 0.04 | 0.04 | 91 | 1010.1 |
| 20260505092501 | 51 | 288 | 0.0 | 1.0 | 0.00 | 0.04 | 0.04 | 91 | 1009.9 |
| 20260505092001 | 51 | 288 | 1.0 | 3.0 | 0.00 | 0.04 | 0.04 | 91 | 1009.9 |
| 20260505091502 | 51 | 288 | 1.0 | 3.0 | 0.01 | 0.04 | 0.04 | 91 | 1010.0 |
| 20260505091001 | 51 | 288 | 1.0 | 3.0 | 0.01 | 0.04 | 0.04 | 90 | 1009.9 |
| 20260505090004 | 51 | 334 | 0.0 | 2.0 | 0.04 | 0.04 | 0.04 | 90 | 1010.0 |
| 20260505085503 | 51 | 334 | 1.0 | 4.0 | 0.04 | 0.04 | 0.04 | 89 | 1010.2 |
| 20260505085000 | 51 | 334 | 3.0 | 6.0 | 0.04 | 0.04 | 0.04 | 90 | 1010.2 |
| 20260505083501 | 52 | 336 | 1.0 | 4.0 | 0.04 | 0.04 | 0.04 | 88 | 1010.2 |
| 20260505083002 | 52 | 336 | 1.0 | 4.0 | 0.04 | 0.04 | 0.04 | 87 | 1010.3 |
| 20260505082501 | 53 | 19 | 0.0 | 0.0 | 0.04 | 0.04 | 0.04 | 86 | 1010.4 |
| 20260505081001 | 53 | 21 | 2.0 | 4.0 | 0.03 | 0.03 | 0.03 | 81 | 1010.0 |
| 20260505080501 | 53 | 222 | 2.0 | 4.0 | 0.00 | 0.00 | 0.00 | 80 | 1010.3 |
| 20260505080002 | 52 | 251 | 3.0 | 5.0 | 0.00 | 0.00 | 0.00 | 79 | 1010.0 |
| 20260505075501 | 52 | 292 | 3.0 | 5.0 | 0.00 | 0.00 | 0.00 | 79 | 1010.1 |
| 20260505075001 | 52 | 266 | 4.0 | 9.0 | 0.00 | 0.00 | 0.00 | 79 | 1009.9 |
| 20260505074502 | 52 | 4 | 2.0 | 9.0 | 0.00 | 0.00 | 0.00 | 79 | 1009.6 |
| 20260505074001 | 52 | 333 | 0.0 | 0.0 | 0.00 | 0.00 | 0.00 | 78 | 1009.5 |
| 20260505073501 | 52 | 205 | 0.0 | 0.0 | 0.00 | 0.00 | 0.00 | 78 | 1009.5 |
| 20260505073001 | 52 | 206 | 0.0 | 0.0 | 0.00 | 0.00 | 0.00 | 78 | 1009.6 |
| 20260505071502 | 52 | 261 | 0.0 | 0.0 | 0.00 | 0.00 | 0.00 | 77 | 1009.7 |
| 20260505071001 | 52 | 261 | 0.0 | 0.0 | 0.00 | 0.00 | 0.00 | 77 | 1009.8 |
| 20260505070501 | 52 | 261 | 0.0 | 0.0 | 0.00 | 0.00 | 0.00 | 76 | 1009.9 |
| 20260505070002 | 52 | 261 | 0.0 | 0.0 | 0.00 | 0.00 | 0.00 | 76 | 1009.7 |
| 20260505065501 | 53 | 259 | 0.0 | 0.0 | 0.00 | 0.00 | 0.00 | 74 | 1009.8 |
| 20260505065001 | 53 | 259 | 0.0 | 0.0 | 0.00 | 0.00 | 0.00 | 73 | 1009.8 |
| 20260505064502 | 53 | 259 | 0.0 | 0.0 | 0.00 | 0.00 | 0.00 | 72 | 1009.8 |
| 20260505064001 | 53 | 259 | 0.0 | 0.0 | 0.00 | 0.00 | 0.00 | 73 | 1009.8 |
| 20260505063501 | 53 | 259 | 0.0 | 0.0 | 0.00 | 0.00 | 0.00 | 73 | 1009.7 |
| 20260505063002 | 53 | 259 | 0.0 | 0.0 | 0.00 | 0.00 | 0.00 | 72 | 1009.8 |
| 20260505062501 | 53 | 259 | 0.0 | 0.0 | 0.00 | 0.00 | 0.00 | 73 | 1009.8 |
| 20260505062001 | 53 | 259 | 0.0 | 0.0 | 0.00 | 0.00 | 0.00 | 74 | 1009.9 |
| 20260505061502 | 53 | 259 | 0.0 | 2.0 | 0.00 | 0.00 | 0.00 | 73 | 1009.9 |
| 20260505061002 | 54 | 259 | 1.0 | 2.0 | 0.00 | 0.00 | 0.00 | 72 | 1009.9 |
| 20260505060501 | 54 | 259 | 2.0 | 3.0 | 0.00 | 0.00 | 0.00 | 71 | 1009.9 |
| 20260505060001 | 54 | 259 | 2.0 | 3.0 | 0.00 | 0.00 | 0.00 | 71 | 1009.9 |
| 20260505055501 | 54 | 259 | 2.0 | 3.0 | 0.00 | 0.00 | 0.00 | 70 | 1009.8 |
| 20260505055001 | 55 | 258 | 1.0 | 3.0 | 0.00 | 0.00 | 0.00 | 68 | 1009.8 |
| 20260505054001 | 57 | 50 | 0.0 | 0.0 | 0.00 | 0.00 | 0.00 | 65 | 1009.9 |
| 20260505053501 | 58 | 50 | 0.0 | 0.0 | 0.00 | 0.00 | 0.00 | 63 | 1009.8 |
| 20260505053002 | 58 | 50 | 1.0 | 2.0 | 0.00 | 0.00 | 0.00 | 62 | 1009.9 |
| 20260505052501 | 59 | 50 | 1.0 | 2.0 | 0.00 | 0.00 | 0.00 | 62 | 1009.8 |
| 20260505052001 | 59 | 50 | 1.0 | 5.0 | 0.00 | 0.00 | 0.00 | 61 | 1009.9 |
| 20260505051502 | 59 | 50 | 3.0 | 5.0 | 0.00 | 0.00 | 0.00 | 61 | 1009.8 |
| 20260505051001 | 59 | 50 | 3.0 | 5.0 | 0.00 | 0.00 | 0.00 | 61 | 1009.8 |
| 20260505050501 | 59 | 50 | 3.0 | 5.0 | 0.00 | 0.00 | 0.00 | 61 | 1009.8 |
| 20260505041501 | 60 | 50 | 2.0 | 5.0 | 0.00 | 0.00 | 0.00 | 59 | 1009.7 |
| 20260505035501 | 60 | 50 | 1.0 | 5.0 | 0.00 | 0.00 | 0.00 | 58 | 1009.6 |
| 20260505034502 | 60 | 50 | 1.0 | 5.0 | 0.00 | 0.00 | 0.00 | 57 | 1009.4 |
| 20260505034001 | 60 | 50 | 2.0 | 5.0 | 0.00 | 0.00 | 0.00 | 57 | 1009.4 |
| 20260505033500 | 60 | 50 | 3.0 | 6.0 | 0.00 | 0.00 | 0.00 | 57 | 1009.4 |
| 20260505033001 | 61 | 50 | 3.0 | 6.0 | 0.00 | 0.00 | 0.00 | 57 | 1009.5 |
| 20260505032500 | 60 | 50 | 2.0 | 6.0 | 0.00 | 0.00 | 0.00 | 57 | 1009.6 |
| 20260505031501 | 60 | 50 | 2.0 | 3.0 | 0.00 | 0.00 | 0.00 | 57 | 1009.6 |
| 20260505031001 | 61 | 50 | 2.0 | 3.0 | 0.00 | 0.00 | 0.00 | 56 | 1009.5 |
| 20260505030501 | 61 | 50 | 2.0 | 5.0 | 0.00 | 0.00 | 0.00 | 56 | 1009.5 |
| 20260505030001 | 61 | 50 | 2.0 | 5.0 | 0.00 | 0.00 | 0.00 | 55 | 1009.6 |
| 20260505025501 | 61 | 50 | 3.0 | 5.0 | 0.00 | 0.00 | 0.00 | 55 | 1009.7 |
| 20260505025001 | 61 | 50 | 3.0 | 6.0 | 0.00 | 0.00 | 0.00 | 55 | 1009.7 |
| 20260505024501 | 61 | 50 | 2.0 | 6.0 | 0.00 | 0.00 | 0.00 | 55 | 1009.7 |
| 20260505024001 | 61 | 50 | 2.0 | 4.0 | 0.00 | 0.00 | 0.00 | 55 | 1009.7 |
| 20260505023501 | 61 | 50 | 2.0 | 4.0 | 0.00 | 0.00 | 0.00 | 55 | 1009.7 |
| 20260505023001 | 61 | 50 | 3.0 | 4.0 | 0.00 | 0.00 | 0.00 | 55 | 1009.8 |
| 20260505022000 | 62 | 50 | 3.0 | 5.0 | 0.00 | 0.00 | 0.00 | 54 | 1009.9 |
| 20260505021505 | 62 | 50 | 3.0 | 5.0 | 0.00 | 0.00 | 0.00 | 54 | 1009.9 |
| 20260505020501 | 62 | 50 | 3.0 | 5.0 | 0.00 | 0.00 | 0.00 | 54 | 1009.9 |
| 20260505020008 | 62 | 50 | 3.0 | 5.0 | 0.00 | 0.00 | 0.00 | 53 | 1009.9 |
| 20260505015501 | 62 | 50 | 3.0 | 5.0 | 0.00 | 0.00 | 0.00 | 53 | 1010.0 |
| 20260505015001 | 62 | 50 | 3.0 | 5.0 | 0.00 | 0.00 | 0.00 | 53 | 1010.0 |
| 20260505014001 | 62 | 50 | 2.0 | 5.0 | 0.00 | 0.00 | 0.00 | 53 | 1009.9 |
| 20260505013501 | 62 | 50 | 2.0 | 5.0 | 0.00 | 0.00 | 0.00 | 53 | 1009.9 |
| 20260505013007 | 63 | 50 | 2.0 | 5.0 | 0.00 | 0.00 | 0.00 | 53 | 1009.9 |
| 20260505012501 | 63 | 50 | 3.0 | 5.0 | 0.00 | 0.00 | 0.00 | 53 | 1009.8 |
| 20260505012001 | 63 | 50 | 2.0 | 4.0 | 0.00 | 0.00 | 0.00 | 52 | 1009.7 |
| 20260505011509 | 63 | 50 | 2.0 | 4.0 | 0.00 | 0.00 | 0.00 | 52 | 1009.7 |
| 20260505011003 | 63 | 50 | 2.0 | 4.0 | 0.00 | 0.00 | 0.00 | 52 | 1009.6 |
| 20260505010502 | 63 | 50 | 2.0 | 4.0 | 0.00 | 0.00 | 0.00 | 51 | 1009.5 |
| 20260505010007 | 63 | 50 | 2.0 | 4.0 | 0.00 | 0.00 | 0.00 | 51 | 1009.6 |
| 20260505005500 | 64 | 50 | 3.0 | 5.0 | 0.00 | 0.00 | 0.00 | 51 | 1009.6 |
| 20260505005001 | 64 | 50 | 3.0 | 6.0 | 0.00 | 0.00 | 0.00 | 51 | 1009.5 |
| 20260505004504 | 64 | 50 | 3.0 | 8.0 | 0.00 | 0.00 | 0.00 | 50 | 1009.5 |
| 20260505004001 | 64 | 50 | 4.0 | 8.0 | 0.00 | 0.00 | 0.00 | 50 | 1009.4 |
| 20260505003501 | 64 | 50 | 4.0 | 8.0 | 0.00 | 0.00 | 0.00 | 50 | 1009.4 |
| 20260505002501 | 65 | 50 | 4.0 | 9.0 | 0.00 | 0.00 | 0.00 | 49 | 1009.3 |
| 20260505002000 | 65 | 50 | 6.0 | 12.0 | 0.00 | 0.00 | 0.00 | 49 | 1009.3 |
| 20260505001503 | 65 | 50 | 6.0 | 12.0 | 0.00 | 0.00 | 0.00 | 48 | 1009.2 |
| 20260505001001 | 65 | 50 | 5.0 | 10.0 | 0.00 | 0.00 | 0.00 | 48 | 1009.1 |
| 20260505000501 | 66 | 50 | 5.0 | 10.0 | 0.00 | 0.00 | 0.00 | 48 | 1009.2 |
| 20260505000007 | 66 | 50 | 5.0 | 12.0 | 0.00 | 0.00 | 0.00 | 47 | 1009.1 |
| 20260504235501 | 66 | 50 | 5.0 | 12.0 | 0.00 | 0.00 | 0.00 | 47 | 1009.1 |
| 20260504235001 | 67 | 50 | 6.0 | 15.0 | 0.00 | 0.00 | 0.00 | 46 | 1009.0 |
| 20260504234502 | 67 | 50 | 8.0 | 15.0 | 0.00 | 0.00 | 0.00 | 46 | 1008.9 |
| 20260504234001 | 67 | 50 | 8.0 | 16.0 | 0.00 | 0.00 | 0.00 | 46 | 1008.9 |
| 20260504233501 | 68 | 50 | 7.0 | 16.0 | 0.00 | 0.00 | 0.00 | 46 | 1008.9 |
| 20260504233003 | 68 | 50 | 7.0 | 17.0 | 0.00 | 0.00 | 0.00 | 45 | 1008.8 |
| 20260504232001 | 68 | 50 | 9.0 | 17.0 | 0.00 | 0.00 | 0.00 | 44 | 1008.7 |
| 20260504231501 | 69 | 50 | 8.0 | 17.0 | 0.00 | 0.00 | 0.00 | 45 | 1008.7 |
| 20260504231001 | 69 | 50 | 8.0 | 17.0 | 0.00 | 0.00 | 0.00 | 44 | 1008.6 |